Orbital Elements at Epoch 2459000.5 (2020-May-31.0) TDB
Reference: JPL 23 (heliocentric ecliptic J2000)
Element | Value | Uncertainty (1-sigma) | Units |
e | .1963500869727718 | 3.3952e-08 | |
a | 2.376663693818287 | 8.7412e-09 | au |
q | 1.910005570832037 | 8.0971e-08 | au |
i | 4.633717230096909 | 4.2003e-06 | deg |
node | 74.34957794418766 | 4.7248e-05 | deg |
peri | 4.743080663727662 | 4.8761e-05 | deg |
M | 56.88085130216503 | 1.0283e-05 | deg |
tp | 2458789.047116636814 (2019-Nov-01.54711664) | 3.8241e-05 | TDB |
period | 1338.289358687031 3.66 | 7.3832e-06 2.021e-08 | d yr |
n | .2690001214335209 | 1.484e-09 | deg/d |
Q | 2.843321816804537 | 1.0458e-08 | au |
|
| | Orbit Determination Parameters
Additional Information
|